This demonstration page uses our WeatherBlox Daily Observations layout. Learn more.

Left ArrowRight Arrow

Hourly Observations for April 2, 2016

Temp ( °F °C ) Dew Point ( °F °C ) Humidity (%) Winds ( mph kmh ) Pressure ( in mb ) Visibility ( mi km ) Precip ( " mm )
12:54 am 00:54 Clear 27 -2.8 22 -5.6 81 81 SSW 5 7 30.07 1018 10 16 0.00 0.00
1:54 am 01:54 Clear 27 -2.8 22 -5.6 81 81 S 5 7 30.05 1018 10 16 0.00 0.00
2:54 am 02:54 Clear 33 0.6 22 -5.6 64 64 SW 7 11 30.02 1017 10 16 0.00 0.00
3:54 am 03:54 Clear 35 1.7 21 -6.1 57 57 WSW 13 20 30.00 1016 10 16 0.00 0.00
4:54 am 04:54 Clear 36 2.2 20 -6.7 52 52 WSW 18 30 29.98 1015 10 16 0.00 0.00
5:54 am 05:54 Clear 36 2.2 22 -5.6 57 57 W 14 22 29.98 1015 10 16 0.00 0.00
6:54 am 06:54 Clear 36 2.2 24 -4.4 62 62 NW 5 7 30.01 1016 10 16 0.00 0.00
7:54 am 07:54 Sunny 40 4.4 27 -2.8 60 60 NW 12 19 30.04 1017 10 16 0.00 0.00
8:54 am 08:54 Sunny 46 7.8 30 -1.1 54 54 NNW 15 24 30.07 1018 10 16 0.00 0.00
9:54 am 09:54 Sunny 50 10 31 -0.6 48 48 NNW 17 28 30.08 1019 10 16 0.00 0.00
10:54 am 10:54 Sunny 54 12.2 32 0 43 43 NNW 17 28 30.10 1019 10 16 0.00 0.00
11:54 am 11:54 Sunny 56 13.3 31 -0.6 39 39 NNW 21 33 30.11 1020 10 16 0.00 0.00
12:54 pm 12:54 Sunny 58 14.4 31 -0.6 36 36 NNW 18 30 30.13 1020 10 16 0.00 0.00
1:54 pm 13:54 Sunny 60 15.6 30 -1.1 32 32 N 20 31 30.12 1020 10 16 0.00 0.00
2:54 pm 14:54 Sunny 61 16.1 31 -0.6 32 32 NW 16 26 30.12 1020 10 16 0.00 0.00
3:54 pm 15:54 Sunny 61 16.1 29 -1.7 30 30 NNW 21 33 30.10 1019 10 16 0.00 0.00
4:54 pm 16:54 Sunny 61 16.1 30 -1.1 31 31 NNW 15 24 30.10 1019 10 16 0.00 0.00
5:54 pm 17:54 Sunny 61 16.1 31 -0.6 32 32 N 9 15 30.09 1019 10 16 0.00 0.00
6:54 pm 18:54 Sunny 60 15.6 31 -0.6 33 33 NNW 5 7 30.09 1019 10 16 0.00 0.00
7:54 pm 19:54 Clear 53 11.7 31 -0.6 43 43 E 3 6 30.08 1019 10 16 0.00 0.00
8:54 pm 20:54 Clear 50 10 33 0.6 52 52 SE 3 6 30.07 1018 10 16 0.00 0.00
9:54 pm 21:54 Clear 45 7.2 32 0 61 61 SSE 6 9 30.06 1018 10 16 0.00 0.00
10:54 pm 22:54 Clear 45 7.2 32 0 61 61 SSE 6 9 30.05 1018 10 16 0.00 0.00
11:54 pm 23:54 Clear 41 5 31 -0.6 67 67 S 8 13 30.03 1017 10 16 0.00 0.00

Powered by AerisWeather